Weather History for Edinburgh Airport, United Kingdom

Change the Weather History Date:

Tuesday, November 1, 2011

  Actual Average Record
Temperature  
Mean Temperature 47 °F -  
Max Temperature 53 °F 48 °F 60 °F (1996)
Min Temperature 41 °F 36 °F 30 °F (2006)
Degree Days  
Heating Degree Days 18    
Moisture  
Dew Point 43 °F    
Average Humidity 82    
Maximum Humidity 94    
Minimum Humidity 62    
Precipitation  
Precipitation 0.00 in 0.08 in - ()
Sea Level Pressure  
Sea Level Pressure 29.63 in    
Wind  
Wind Speed 6 mph ()    
Max Wind Speed 16 mph    
Max Gust Speed -    
Visibility 6.2 miles    
Events Rain    
Averages and records for this station are not official NWS values.
T = Trace of Precipitation, MM = Missing Value Source: Averaged Metar Reports

Daily Weather History Graph

Daily Weather History Graph

Search for Another Location

Airport:

Trip Planner

Search our weather history database for the weather conditions in past years. The results will help you decide how hot, cold, wet, or windy it might be!

Date:

Astronomy

Nov. 01, 2011 Rise Set
Actual Time 7:19 AM GMT 4:33 PM GMT
Civil Twilight 6:39 AM GMT 5:13 PM GMT
Nautical Twilight 5:55 AM GMT 5:57 PM GMT
Astronomical Twilight 5:12 AM GMT 6:40 PM GMT
Moon 1:12 PM GMT (11/1) 9:48 PM GMT (11/1)
Length of Visible Light 10h 33m
Length of Day
9h 14m
Waxing Crescent, 38% of the Moon is Illuminated
Nov 1
Waxing Crescent
Nov 2
First Quarter
Nov 10
Full
Nov 18
Last Quarter
Nov 25
New

Hourly Weather History & Observations

Time (GMT) Temp. Windchill Dew Point Humidity Pressure Visibility Wind Dir Wind Speed Gust Speed Precip Events Conditions
12:20 AM 50.0 °F - 48.2 °F 94% 29.56 in - SW 4.6 mph - N/A   Clear
12:50 AM 50.0 °F - 48.2 °F 94% 29.56 in 6.2 mi WNW 2.3 mph - N/A   Scattered Clouds
1:20 AM 50.0 °F - 48.2 °F 94% 29.56 in 6.2 mi Variable 2.3 mph - N/A   Scattered Clouds
1:50 AM 50.0 °F - 48.2 °F 94% 29.56 in 6.2 mi Variable 3.5 mph - N/A   Overcast
2:20 AM 51.8 °F - 48.2 °F 88% 29.53 in 6.2 mi SSW 9.2 mph - N/A   Mostly Cloudy
2:50 AM 51.8 °F - 48.2 °F 88% 29.53 in 6.2 mi SW 6.9 mph - N/A   Mostly Cloudy
3:20 AM 51.8 °F - 48.2 °F 88% 29.53 in 6.2 mi SSW 6.9 mph - N/A Rain Light Rain
3:50 AM 51.8 °F - 48.2 °F 88% 29.53 in 6.2 mi SSW 8.1 mph - N/A Rain Light Rain
4:20 AM 50.0 °F - 48.2 °F 94% 29.53 in 6.2 mi SSW 6.9 mph - N/A   Scattered Clouds
4:50 AM 50.0 °F - 46.4 °F 87% 29.56 in - SW 6.9 mph - N/A   Clear
5:20 AM 50.0 °F - 48.2 °F 94% 29.56 in - West 3.5 mph - N/A   Clear
5:50 AM 48.2 °F - 46.4 °F 93% 29.56 in - West 3.5 mph - N/A   Clear
6:20 AM 50.0 °F - 46.4 °F 87% 29.56 in - West 3.5 mph - N/A   Clear
6:50 AM 48.2 °F - 46.4 °F 93% 29.56 in 6.2 mi WNW 3.5 mph - N/A   Partly Cloudy
7:20 AM 48.2 °F - 44.6 °F 87% 29.56 in 6.2 mi WSW 5.8 mph - N/A   Scattered Clouds
7:50 AM 46.4 °F 42.4 °F 44.6 °F 93% 29.59 in 6.2 mi WSW 8.1 mph - N/A   Partly Cloudy
8:20 AM 48.2 °F - 44.6 °F 87% 29.59 in 6.2 mi SW 10.4 mph - N/A   Partly Cloudy
8:50 AM 48.2 °F - 44.6 °F 87% 29.62 in 6.2 mi SW 13.8 mph - N/A   Partly Cloudy
9:20 AM 50.0 °F - 44.6 °F 82% 29.62 in 6.2 mi SW 15.0 mph - N/A   Partly Cloudy
9:50 AM 50.0 °F - 44.6 °F 82% 29.62 in 6.2 mi SW 16.1 mph - N/A   Partly Cloudy
10:20 AM 51.8 °F - 46.4 °F 82% 29.62 in 6.2 mi SW 15.0 mph - N/A   Scattered Clouds
10:50 AM 50.0 °F - 44.6 °F 82% 29.62 in 6.2 mi SW 15.0 mph - N/A   Scattered Clouds
11:20 AM 51.8 °F - 44.6 °F 76% 29.65 in 6.2 mi SW 13.8 mph - N/A   Scattered Clouds
11:50 AM 51.8 °F - 42.8 °F 71% 29.65 in 6.2 mi SW 16.1 mph - N/A   Partly Cloudy
12:20 PM 51.8 °F - 42.8 °F 71% 29.65 in 6.2 mi SW 12.7 mph - N/A   Partly Cloudy
12:50 PM 51.8 °F - 42.8 °F 71% 29.65 in 6.2 mi SW 13.8 mph - N/A   Partly Cloudy
1:20 PM 53.6 °F - 42.8 °F 67% 29.65 in 6.2 mi SW 12.7 mph - N/A   Partly Cloudy
1:50 PM 53.6 °F - 42.8 °F 67% 29.65 in 6.2 mi WSW 15.0 mph - N/A   Partly Cloudy
2:20 PM 53.6 °F - 41.0 °F 62% 29.65 in 6.2 mi SW 13.8 mph - N/A   Partly Cloudy
2:50 PM 53.6 °F - 41.0 °F 62% 29.65 in 6.2 mi SW 11.5 mph - N/A   Partly Cloudy
3:20 PM 51.8 °F - 41.0 °F 67% 29.68 in 6.2 mi WSW 11.5 mph - N/A   Partly Cloudy
3:50 PM 51.8 °F - 41.0 °F 67% 29.68 in - WSW 5.8 mph - N/A   Clear
4:20 PM 50.0 °F - 41.0 °F 71% 29.68 in - Variable 2.3 mph - N/A   Clear
4:50 PM 48.2 °F - 39.2 °F 71% 29.68 in - Variable 3.5 mph - N/A   Clear
5:20 PM 46.4 °F 45.2 °F 39.2 °F 76% 29.68 in - Variable 3.5 mph - N/A   Clear
5:50 PM 44.6 °F - 39.2 °F 81% 29.68 in - Calm Calm - N/A   Clear
6:20 PM 42.8 °F - 37.4 °F 81% 29.68 in - Calm Calm - N/A   Clear
6:50 PM 44.6 °F 43.1 °F 39.2 °F 81% 29.71 in - Variable 3.5 mph - N/A   Clear
7:20 PM 44.6 °F - 39.2 °F 81% 29.71 in - Variable 2.3 mph - N/A   Clear
7:50 PM 44.6 °F - 39.2 °F 81% 29.71 in - Variable 2.3 mph - N/A   Clear
8:20 PM 44.6 °F - 39.2 °F 81% 29.71 in - Variable 2.3 mph - N/A   Clear
8:50 PM 42.8 °F - 37.4 °F 81% 29.71 in - Variable 2.3 mph - N/A   Clear
9:20 PM 42.8 °F 41.1 °F 39.2 °F 87% 29.71 in - Variable 3.5 mph - N/A   Clear
9:50 PM 46.4 °F 44.3 °F 41.0 °F 81% 29.74 in - SSE 4.6 mph - N/A   Clear
10:20 PM 41.0 °F - 39.2 °F 93% 29.71 in - Variable 2.3 mph - N/A   Clear
10:50 PM 42.8 °F 41.1 °F 39.2 °F 87% 29.71 in - NE 3.5 mph - N/A   Clear
11:20 PM 41.0 °F 38.0 °F 39.2 °F 93% 29.71 in - ENE 4.6 mph - N/A   Clear
11:50 PM 41.0 °F 39.0 °F 39.2 °F 93% 29.68 in - ENE 3.5 mph - N/A   Clear